EW7833 Weather Reports


Display with metric or nautical units.
time (UTC)temp
F
wind
direction
speed
MPH
gust
MPH
rain 1hr
in
rain 24hr
in
rain mn
in
humidity
%
barometer
mb
20260903083035 59 238 0.0 0.0 0.00 0.01 0.00 89 1013.2
20260903081533 59 238 0.0 0.0 0.00 0.01 0.00 88 1013.0
20260903080047 59 238 0.0 0.0 0.00 0.01 0.00 88 1013.1
20260903074529 58 238 0.0 0.0 0.00 0.01 0.00 90 1012.8
20260903073031 59 238 0.0 0.0 0.00 0.01 0.00 89 1012.8
20260903071527 59 238 0.0 0.0 0.00 0.01 0.00 90 1012.7
20260903070025 59 238 0.0 0.0 0.00 0.01 0.00 90 1012.5
20260903064524 59 238 0.0 0.0 0.00 0.01 0.00 89 1012.6
20260903063023 59 238 0.0 0.0 0.00 0.01 0.00 90 1012.6
20260903061522 59 238 0.0 0.0 0.00 0.01 0.00 90 1012.6
20260903060021 59 238 0.0 0.0 0.00 0.01 0.00 91 1012.6
20260903054519 60 238 0.0 0.0 0.00 0.01 0.00 91 1012.4
20260903053017 60 238 0.0 0.0 0.00 0.01 0.00 91 1012.3
20260903051516 60 238 0.0 0.0 0.00 0.01 0.00 91 1012.4
20260903050022 61 237 0.0 0.0 0.00 0.01 0.00 91 1012.4
20260903044521 61 238 0.0 0.0 0.00 0.01 0.00 91 1012.3
20260903043012 61 238 0.0 0.0 0.00 0.01 0.00 91 1012.3
20260903041513 62 238 0.0 0.0 0.00 0.01 0.00 91 1012.2
20260903040009 62 238 0.0 0.0 0.00 0.01 0.00 91 1012.1
20260903034506 62 238 0.0 0.0 0.00 0.01 0.01 91 1012.1
20260903033005 62 238 0.0 0.0 0.00 0.01 0.01 91 1012.1
20260903031505 62 238 0.0 0.0 0.00 0.01 0.01 91 1012.0
20260903030004 62 238 0.0 0.0 0.00 0.01 0.01 92 1012.0
20260903024503 63 238 0.0 0.0 0.00 0.01 0.01 92 1011.8
20260903023002 63 238 0.0 0.0 0.00 0.01 0.01 92 1011.8
20260903021601 63 237 0.0 0.0 0.00 0.01 0.01 92 1011.7
20260903020058 64 238 0.0 0.0 0.00 0.01 0.01 92 1011.7
20260903014557 64 238 0.0 0.0 0.00 0.01 0.01 92 1011.6
20260903013055 65 238 0.0 0.0 0.00 0.01 0.01 91 1011.5
20260903011553 66 238 0.0 0.0 0.00 0.01 0.01 91 1011.3
20260903010049 66 238 0.0 0.0 0.00 0.01 0.01 89 1011.2
20260903004554 68 238 0.0 0.0 0.00 0.01 0.01 87 1011.0
20260903003048 70 238 0.0 0.0 0.00 0.01 0.01 84 1011.0
20260903001601 71 251 1.0 2.0 0.00 0.01 0.01 84 1011.2
20260903000046 71 250 0.0 4.0 0.00 0.01 0.01 84 1011.2
20260902234546 72 255 2.0 5.0 0.00 0.01 0.01 83 1011.1
20260902233046 72 257 1.0 6.0 0.00 0.01 0.01 80 1011.0
20260902231544 73 255 1.0 5.0 0.00 0.01 0.01 79 1011.0
20260902230046 73 256 2.0 5.0 0.00 0.01 0.01 79 1011.0
20260902224642 74 252 2.0 6.0 0.00 0.01 0.01 75 1011.0
20260902223041 74 269 3.0 8.0 0.00 0.01 0.01 76 1011.1
20260902221547 75 246 4.0 7.0 0.00 0.01 0.01 74 1011.1
20260902220050 75 245 3.0 7.0 0.00 0.01 0.01 75 1011.0
20260902214538 75 259 2.0 8.0 0.00 0.01 0.01 72 1011.0
20260902213046 75 255 3.0 7.0 0.00 0.01 0.01 74 1010.9
20260902211538 75 251 2.0 6.0 0.00 0.01 0.01 73 1010.9
20260902210037 75 264 3.0 7.0 0.00 0.01 0.01 73 1011.0
20260902204536 75 270 4.0 10.0 0.00 0.01 0.01 72 1011.2
20260902203035 76 256 5.0 9.0 0.00 0.01 0.01 68 1011.2
20260902201535 76 255 4.0 7.0 0.00 0.01 0.01 71 1011.1
20260902200034 76 248 2.0 7.0 0.00 0.01 0.01 70 1011.3
20260902194542 76 252 4.0 7.0 0.00 0.01 0.01 70 1011.5
20260902193031 76 259 3.0 7.0 0.00 0.01 0.01 71 1011.5
20260902191528 75 255 2.0 7.0 0.00 0.01 0.01 72 1012.0
20260902190042 75 253 3.0 9.0 0.00 0.01 0.01 77 1012.0
20260902184524 74 236 3.0 6.0 0.00 0.01 0.01 79 1011.9
20260902183022 74 248 2.0 5.0 0.00 0.01 0.01 79 1011.8
20260902181521 74 245 3.0 8.0 0.00 0.01 0.01 79 1011.9
20260902180028 73 249 3.0 7.0 0.00 0.01 0.01 83 1012.2
20260902174519 73 260 2.0 6.0 0.00 0.01 0.01 84 1012.0
20260902173017 72 255 1.0 4.0 0.00 0.01 0.01 85 1011.7
20260902171518 72 245 0.0 2.0 0.00 0.01 0.01 85 1011.2
20260902170017 71 256 0.0 5.0 0.00 0.01 0.01 84 1011.7
20260902164516 71 253 0.0 6.0 0.00 0.01 0.01 84 1011.7
20260902163015 71 264 2.0 9.0 0.00 0.01 0.01 87 1011.7
20260902161527 70 238 1.0 5.0 0.00 0.01 0.01 88 1011.5
20260902160015 70 247 1.0 3.0 0.00 0.01 0.01 89 1011.5
20260902154513 69 252 0.0 4.0 0.00 0.01 0.01 89 1011.9
20260902153014 69 250 1.0 3.0 0.00 0.01 0.01 90 1011.7
20260902151515 69 249 1.0 4.0 0.00 0.01 0.01 89 1012.1
20260902150012 69 260 2.0 7.0 0.00 0.01 0.01 91 1012.6
20260902144512 70 252 0.0 3.0 0.00 0.01 0.01 91 1011.5
20260902143011 69 231 0.0 1.0 0.00 0.01 0.01 92 1011.0
20260902141510 67 252 0.0 0.0 0.01 0.01 0.01 92 1010.6
20260902140010 67 116 0.0 1.0 0.01 0.01 0.01 92 1009.4
20260902134510 67 96 0.0 1.0 0.01 0.01 0.01 92 1010.0
20260902133007 69 209 0.0 3.0 0.01 0.01 0.01 91 1012.2
20260902131507 70 251 0.0 8.0 0.00 0.00 0.00 90 1012.7
20260902130006 71 226 3.0 11.0 0.00 0.00 0.00 92 1013.8
20260902124503 71 252 4.0 11.0 0.00 0.00 0.00 90 1013.5
20260902123102 71 259 1.0 6.0 0.00 0.00 0.00 88 1013.1
20260902121557 71 255 2.0 7.0 0.00 0.00 0.00 88 1012.7
20260902120057 71 259 0.0 2.0 0.00 0.00 0.00 88 1011.6
20260902114552 71 248 0.0 3.0 0.00 0.00 0.00 87 1011.5
20260902113049 71 252 0.0 1.0 0.00 0.00 0.00 86 1010.9
20260902111551 69 234 0.0 0.0 0.00 0.00 0.00 90 1010.6
20260902110047 70 234 0.0 0.0 0.00 0.00 0.00 90 1010.6
20260902104547 71 232 0.0 1.0 0.00 0.00 0.00 89 1010.6
20260902103047 71 250 0.0 1.0 0.00 0.00 0.00 89 1010.6
20260902101546 71 250 0.0 2.0 0.00 0.00 0.00 89 1011.0
20260902100045 72 248 0.0 2.0 0.00 0.00 0.00 88 1011.0
20260902094546 71 252 0.0 2.0 0.00 0.00 0.00 89 1010.9
20260902093042 72 258 0.0 1.0 0.00 0.00 0.00 90 1010.7
20260902091542 72 241 0.0 1.0 0.00 0.00 0.00 90 1010.6
20260902090039 72 250 1.0 2.0 0.00 0.00 0.00 90 1010.5
20260902084541 72 240 0.0 2.0 0.00 0.00 0.00 90 1010.3